Regional Weather Roundup
Issued by NWS Cleveland, OH

Home | Current Version | Previous Version | Graphics & Text | Print | Product List | Glossary On
Versions: 1 2 3 4 5 6 7 8 9 10 11 12 13 14 15 16 17 18 19 20 21 22 23 24 25 26 27 28 29 30 31 32 33 34 35 36 37 38 39 40 41 42 43 44 45 46 47 48 49 50
000
ASUS41 KCLE 252210
RWRCLE
OHIO REGIONAL WEATHER ROUNDUP
NATIONAL WEATHER SERVICE WILMINGTON, OH
500 PM EST SAT FEB 25 2017

NOTE: "FAIR" INDICATES FEW OR NO CLOUDS BELOW 12,000 FEET WITH NO
SIGNIFICANT WEATHER AND/OR OBSTRUCTIONS TO VISIBILITY.

OHZ001>008-015>018-024>027-034-035-043-044-252300-
   NORTHWEST OHIO

CITY           SKY/WX    TMP DP  RH WIND       PRES   REMARKS
DEFIANCE       CLOUDY    26  16  65 W14G23    29.89R WCI  14
FINDLAY        FLURRIES  29  18  63 W23G32    29.86R WCI  15
TOLEDO EXPRESS CLOUDY    27  18  69 W18G30    29.85R WCI  14
TOLEDO EXEC    CLOUDY    29  18  63 W21G31    29.85R WCI  16
LIMA           FLURRIES  26  20  77 W22       29.89R WCI  12
$$

OHZ009>014-019>023-028>033-038-089-252300-
   NORTHEAST OHIO

CITY           SKY/WX    TMP DP  RH WIND       PRES   REMARKS
CLE-HOPKINS    FLURRIES  32  20  61 W24G40    29.81R WCI  19
CLE-LAKEFRONT  FLURRIES  33  25  72 W29G38    29.78R WCI  19
CUY CO. ARPT   LGT SNOW  34  25  69 W17G29    29.77R WCI  23
LORAIN-ELYRIA  CLOUDY    30  20  66 W21G32    29.81R WCI  17
ASHTABULA      LGT SNOW  31  28  89 W18G25    29.74R VSB 1   WCI  19
AKRON-CANTON   CLOUDY    33  20  58 W23G35    29.77R WCI  21
WOOSTER        LGT SNOW  29  22  75 W25G32    29.81R WCI  14
MANSFIELD      CLOUDY    28  19  69 W16G26    29.81R WCI  16
YOUNGSTOWN     FLURRIES  34  25  69 W23G32    29.72R WCI  22
$$

OHZ042-051>053-060>062-070>072-077>081-252300-
  SOUTHWEST OHIO

CITY           SKY/WX    TMP DP  RH WIND       PRES   REMARKS
CINC-COVINGTON CLOUDY    32  18  56 W18G24    29.97R WCI  20
CINC-LUNKEN    CLOUDY    34  19  54 W13G23    30.00R WCI  25
HAMILTON       CLOUDY    32  19  58 W17G24    29.99R WCI  21
DAYTON         CLOUDY    28  16  60 W20G31    29.94R WCI  15
WRIGHT-PAT AFB CLOUDY    28  18  64 W18       29.94R WCI  16
DAYTON GENERAL CLOUDY    29  17  61 W16G25    29.94R WCI  17
WILMINGTON     CLOUDY    29  18  63 W23G29    29.94R WCI  15
$$

OHZ036-037-039>041-045>050-054>059-063>069-073>076-082>088-252300-
  CENTRAL AND SOUTHEAST OHIO

CITY           SKY/WX    TMP DP  RH WIND       PRES   REMARKS
COLUMBUS       CLOUDY    33  21  61 W24G30    29.90R WCI  20
OSU AIRPORT    FLURRIES  29  21  72 W22G33    29.90R WCI  15
BOLTON FIELD   CLOUDY    30  21  69 W15G25    29.91R WCI  19
RICKENBACK AFB CLOUDY    31  20  65 W23G31    29.92R WCI  18
NEWARK         CLOUDY    32  22  66 W14G21    29.87R WCI  22
MARION         CLOUDY    28  17  63 W22G30    29.88R WCI  14
LANCASTER      CLOUDY    33  19  56 W21G32    29.91R WCI  21
ZANESVILLE     CLOUDY    33  21  61 W21G36    29.87R WCI  21
NEW PHILLY     CLOUDY    34  24  67 W14G28    29.83R WCI  25
$$



USA.gov is the U.S. government's official web portal to all federal, state and local government web resources and services.